CZ-6A DEB

Satellite information

Favourite Embed

Satellite Type and Status

DEBRISIN ORBIT

Key statistics

Satellite CZ-6A DEB at a glance.

Uptime

1076

Days in orbit

Revolutions

≈ 14.7

Per day

Orbit

SSO

Sun Synchronous Orbit

Inclination

98.6

Latest

Satellite identification and parameters

Extended collection of information and parameters for CZ-6A DEB.

Object identification

Identified? True

Debris? True

Object name: CZ-6A DEB

International designator: 2022-151PG

Object number (NORAD): 54630

Object ID (CCSDS): 54630

Country: PEOPLES REPUBLIC OF CHINA (PRC)

Current information (Y/N): Y

RCS size: SMALL

Orbital parameters

Period: 98.052 minutes

Inclination: 98.6448 deg

SMA: 7043.65 km

Apoapsis: 715.893 km

Periapsis: 615.138 km

RAAN: 345.452 deg

Eccentricy: 0.0071522

Argument of periapsis: 301.1251 deg

Mean anomaly: 58.295 deg

Mean motion: 14.68608709 rev/day

Mean motion (dot): 0.00023385 rev/day2

B* drag term: 0.0038688 1/REarth

Two-line elements (TLE)

Creation date: Oct. 22, 2025, 12:06 a.m.

Reference frame: TEME

Reference center: EARTH

Epoch: Oct. 21, 2025, 4:22 p.m. UTC

TLE line 0: 0 CZ-6A DEB

TLE line 1: 1 54630U 22151PG 25294.68243449 .00023385 00000-0 38688-2 0 9997

TLE line 2: 2 54630 98.6448 345.4520 0071522 301.1251 58.2950 14.68608709154314

Live tracking on map

Real-time ground track for satellite CZ-6A DEB.

In-orbit conjunctions

A list of the most updated potential collisions computed for object CZ-6A DEB.

Target Orbit TCA Probability of collision Miss distance Type
IRIDIUM 33 DEB LEO 2024-12-10 09:09:46 0.0001120623 118.0 (m) DEBRIS

Associated space launch

Chinese satellite reported for atmospheric/ocean/environmental/spatial parameter research purposes, details TBD.

CZ-6A DEB was lifted into orbit during the mission ‘Long March 6A | Yunhai 3’, on board a Long March 6A space rocket.

The launch took place on Nov. 11, 2022, 10:52 p.m. from Launch Complex 9A.

For more information about the launch, click the button.

Launch to space Long March 6A | Yunhai 3
Long March 6A | Yunhai 3

Agency: N/A

Status: Launch Successful

Launch date: Nov. 11, 2022, 10:52 p.m. UTC

Rocket: Long March 6A

Launch pad: Launch Complex 9A

Location: Taiyuan Satellite Launch Center, People's Republic of China

...

Latest news about this satellite

There are no fresh news available about this satellite. Check back as we update our databases every day.


Newsletter sign-up

Weekly statistics, charts and insights to help you stay on top of the space industry.